Location: Huppendorf
(49.9333°N, 11.1500°E)
Time: 04:47:01
(UTC+00:00)

STARLINK-24 - Pass Details

Date: 27 February 2020
Orbit: 527 x 528 km, 53.0° (Epoch: 09 April)

Event Time Altitude Azimuth Distance (km) Brightness Sun altitude
Rises 18:36:35 0° 282° (WNW) 2,667 8.9 -17.3°
Reaches altitude 10° 18:38:50 10° 287° (WNW) 1,778 7.5 -17.7°
Maximum altitude 18:42:48 56° 6° (N) 638 3.9 -18.3°
Enters shadow 18:43:56 40° 60° (ENE) 793 4.0 -18.5°
